(24) Themis
ephemeris date magn radius delta ra dec elong phase
Opposition30 May 202611.53.188 AU2.174 AU16h29m-22°24'179.3°0.2°
Today27 Jul 202612.73.249 AU2.630 AU16h02m-21°19'119.2°15.8°
(24) Themis - 2026-07-27
astro.vanbuitenen.nl


 
-1 year
-1 month
-1 day
Now
+1 day
+1 month
+1 year

The interactive orbit chart above shows the body's path through the solar system and its position at the given date. Green and blue lines are shown perpendicular to the ecliptic plane: Green if the path is above the ecliptic plane, blue if it is below. (Left-click and drag to rotate the view; Right-click and drag to move the view; Use scroll wheel to zoom in our out.)

The orbital elements of Themis are:

            e (Eccentricity)                : 0.1153800
            a (Semimajor axis)              : 3.1439977
            i (Inclination)                 : 0.73662
            Ω (Longitude of ascending node) : 36.39075
            ω (Argument of perihelion)      : 109.22177
            M (Mean anomaly)                : 92.01695
            Epoch                           : 2026 Jun 09

            L (Longitude of perihelion)     : -34.38601
            B (Latitude of perihelion)      : 0.69555
            P (Orbital period in years)     : 5.57            
        

The light curve chart below shows the estimated development of the minor planet's magnitude.


The all-sky chart below shows the path of the minor planet over the same period as the light curve. The current position is marked yellow.





The following chart shows the path of the minor planet in the next few days. The field of view is optimized for (~10x50) binoculars and finderscopes.




Ephemerides:
Date       Time       RA (2000)    DEC (2000)    delta   radius  elong  phase   PA    magn
2026-07-27 00:00 UT   16 02 38.7   -21 19 45     2.630    3.249  119.2   15.8   101   12.7 
2026-07-27 13:14 UT   16 02 42.3   -21 19 53     2.638    3.250  118.7   15.9   101   12.7 
2026-07-28 00:00 UT   16 02 45.4   -21 19 60     2.644    3.250  118.3   16.0   101   12.7 
2026-07-29 00:00 UT   16 02 53.3   -21 20 18     2.657    3.251  117.3   16.1   101   12.8 
2026-07-30 00:00 UT   16 03 02.5   -21 20 39     2.671    3.252  116.4   16.2   101   12.8 
2026-07-31 00:00 UT   16 03 12.9   -21 21 04     2.684    3.253  115.5   16.4   101   12.8 
2026-08-01 00:00 UT   16 03 24.5   -21 21 33     2.698    3.254  114.6   16.5   101   12.8 
2026-08-02 00:00 UT   16 03 37.4   -21 22 04     2.712    3.255  113.7   16.6   101   12.8 
2026-08-03 00:00 UT   16 03 51.5   -21 22 39     2.726    3.256  112.8   16.7   101   12.8 
2026-08-04 00:00 UT   16 04 06.8   -21 23 17     2.740    3.257  111.9   16.8   101   12.9 
2026-08-05 00:00 UT   16 04 23.4   -21 23 58     2.754    3.258  111.0   16.9   101   12.9 
2026-08-06 00:00 UT   16 04 41.1   -21 24 42     2.768    3.259  110.1   17.0   101   12.9 
2026-08-07 00:00 UT   16 04 60.0   -21 25 29     2.782    3.260  109.2   17.1   101   12.9 
2026-08-08 00:00 UT   16 05 20.0   -21 26 20     2.797    3.261  108.4   17.2   101   12.9 
2026-08-09 00:00 UT   16 05 41.3   -21 27 13     2.811    3.262  107.5   17.2   101   12.9 
2026-08-10 00:00 UT   16 06 03.6   -21 28 09     2.826    3.263  106.6   17.3   101   12.9 
2026-08-11 00:00 UT   16 06 27.2   -21 29 08     2.840    3.264  105.7   17.4   101   13.0 
2026-08-12 00:00 UT   16 06 51.9   -21 30 10     2.855    3.265  104.9   17.5   101   13.0 
2026-08-13 00:00 UT   16 07 17.7   -21 31 15     2.870    3.266  104.0   17.5   101   13.0 
2026-08-14 00:00 UT   16 07 44.6   -21 32 22     2.884    3.267  103.2   17.6   101   13.0 
2026-08-15 00:00 UT   16 08 12.7   -21 33 32     2.899    3.268  102.3   17.6   101   13.0 
2026-08-16 00:00 UT   16 08 41.8   -21 34 45     2.914    3.270  101.5   17.7   101   13.0 
2026-08-17 00:00 UT   16 09 12.0   -21 35 60     2.929    3.271  100.6   17.7   101   13.0 
2026-08-18 00:00 UT   16 09 43.3   -21 37 17     2.944    3.272   99.8   17.8   101   13.1 
2026-08-19 00:00 UT   16 10 15.6   -21 38 37     2.959    3.273   99.0   17.8   100   13.1 
2026-08-20 00:00 UT   16 10 49.0   -21 39 59     2.973    3.274   98.1   17.8   100   13.1 
2026-08-21 00:00 UT   16 11 23.4   -21 41 24     2.988    3.275   97.3   17.8   100   13.1 
2026-08-22 00:00 UT   16 11 58.8   -21 42 50     3.003    3.276   96.5   17.9   100   13.1 
2026-08-23 00:00 UT   16 12 35.3   -21 44 19     3.019    3.277   95.7   17.9   100   13.1 
2026-08-24 00:00 UT   16 13 12.7   -21 45 49     3.034    3.278   94.8   17.9   100   13.1 
2026-08-25 00:00 UT   16 13 51.1   -21 47 22     3.049    3.279   94.0   17.9   100   13.1 
2026-08-26 00:00 UT   16 14 30.5   -21 48 56     3.064    3.280   93.2   17.9   100   13.2 


    Terminology:
            
    delta:  distance between minor planet and earth in AU
    radius: distance between minor planet and sun in AU
    magn:   magnitude (brightness) estimate    
    ra:     right ascension in hours (24h = 360deg)
    dec:    declination in degrees
    elong:  elongation in degrees (angle sun-earth-minor planet)    
    phase:  phase angle in degrees (angle sun-minor planet-earth)        
    AU:     Astronomical Unit (mean distance between earth and sun: 149597870.7 km
    

Orbital elements provided by the MPC (Minor Planet Center).
Calculations by a modified version of AAPlus, a C# implementation of the AA+ project by PJ Naughter from the algorithms presented in the book "Astronomical Algorithms" by Jean Meeus.
NGC2000 dso catalog and star labels from VizieR as provided by the Strasbourg astronomical Data Center.
Tycho2 catalog from the ESO archive.